Regional Weather Roundup
Issued by NWS Jackson, KY

Home | Current Version | Previous Version | Text Only | Print | Product List | Glossary Off
Versions: 1 2 3 4 5 6 7 8 9 10 11 12 13 14 15 16 17 18 19 20 21 22 23 24 25 26 27 28 29 30 31 32 33 34 35 36 37 38 39 40 41 42 43 44 45 46 47 48 49 50

000
ASUS43 KJKL 301710
RWRJKL

EAST KENTUCKY HOURLY WEATHER ROUNDUP
NATIONAL WEATHER SERVICE JACKSON KY
100 PM EDT SUN AUG 30 2015

NOTE: "FAIR" INDICATES FEW OR NO CLOUDS BELOW 12,000 FEET WITH
NO SIGNIFICANT WEATHER AND/OR OBSTRUCTIONS TO VISIBILITY.

* THESE REPORTS ARE NOT UNDER NWS QUALITY CONTROL AND MAY NOT
  REPORT WEATHER SUCH AS PRECIPITATION AND FOG.

KYZ079-080-083-085-087-088-110-112-115-119-120-301800
...EASTERN KENTUCKY...

CITY           SKY/WX    TMP DP  RH WIND       PRES   REMARKS
JACKSON        CLOUDY    78  65  63 VRB3      30.20S
LONDON         PTSUNNY   81  59  47 W8        30.19F
SOMERSET*      MOSUNNY   77  64  65 S5        30.18F
MONTICELLO*    CLOUDY    81  67  62 SW7       30.20F
WILLIAMSBURG*  SUNNY     77  64  65 CALM      30.19F
MIDDLESBORO*   CLOUDY    75  66  73 CALM      30.20F
HAZARD APT*    MOSUNNY   81  63  54 W6        30.19F
BLACK MTN*       N/A     66  61  82 VRB3        N/A
PIKEVILLE APT* SUNNY     72  64  78 CALM      30.21S
BIG SANDY*     CLOUDY    76  67  71 CALM      30.19F
MOREHEAD APT*  PTSUNNY   81  66  61 SW8       30.18S
$$

KYZ035-036-041-042-044-050-067-078-099-301800
...CENTRAL KENTUCKY...

CITY           SKY/WX    TMP DP  RH WIND       PRES   REMARKS
MT STERLING*   PTSUNNY  N/A N/A N/A SW8       30.18S
FLEMING/MASON* SUNNY     82  70  65 SW10      30.16F
DANVILLE*      PTSUNNY   79  66  65 S9G16     30.18S
RICHMOND*      PTSUNNY   81  63  54 SW9       30.16F
LEXINGTON      MOSUNNY   83  68  60 VRB7      30.15F
FRANKFORT      MOSUNNY   83  65  54 SW10      30.12F
$$

KYZ091>093-OHZ055-061-077-WVZ005-015-034-035-042-301800
...SOUTHERN OHIO/WEST VIRGINIA...

CITY           SKY/WX    TMP DP  RH WIND       PRES   REMARKS
COVINGTON      PTSUNNY   81  70  69 S6        30.12F
COLUMBUS       MOSUNNY   81  69  67 S7        30.11S
DAYTON         MOSUNNY   82  71  69 SW9       30.12F
WILMINGTON     MOSUNNY   81  70  69 S9        30.12F
HUNTINGTON     CLOUDY    82  66  58 VRB6      30.15F
CHARLESTON     CLOUDY    81  66  60 SW5       30.17F
PINEVILLE*     CLOUDY    77  65  68 MISG      30.26F
BECKLEY        CLOUDY    75  63  66 NW3       30.25F
BLUEFIELD      CLOUDY    77  60  55 CALM      30.27F
$$

VAZ002-007-008-TNZ017-027-036-066-071-301800
...SOUTHWEST VIRGINIA/EAST TENNESSEE...

CITY           SKY/WX    TMP DP  RH WIND       PRES   REMARKS
WISE*          CLOUDY    73  61  64 NE5       30.28S
JONESVILLE*    CLOUDY    75  55  50 CALM      30.22F
ABINGDON*      CLOUDY    78  58  49 SE3       30.24S
BRISTOL        CLOUDY    77  63  61 CALM      30.20F
KNOXVILLE      CLOUDY    70  65  84 E5        30.17S
OAK RIDGE      CLOUDY    78  66  66 CALM      30.18F
CROSSVILLE     CLOUDY    76  61  59 S5        30.22S
NASHVILLE      CLOUDY    79  66  65 S12       30.16S
$$

...KEY TO REMARKS...
VSB - VISIBILITY IN MILES
WCI - WIND CHILL INDEX
HX  - HEAT INDEX

$$


USA.gov is the U.S. government's official web portal to all federal, state and local government web resources and services.